[[{"header":{"parameterUnit":"m.s-1","parameterCategory":2,"la1":30.2991,"la2":30.254,"lo1":-89.0895,"lo2":-89.0444,"dy":0.0017,"dx":0.0017,"nx":28,"ny":28,"refTime":"2023-04-26T21:00:00:Z","depth":"0","parameterNumber":2,"parameterNumberName":"U-component_of_CURRENTS"},"data":[0,0,0,0,0,0,0,0,0,0,0,0,0,0,0,0,0,0,0,0,0,0,0,0,0,0,0,0,0,0,0,0,0,0,0,0,0,0,0,0,0,0,0,0,0,0,0,0,0,0,0,0,0,0,0,0,0,0,0.5168,0.5168,0,0.5161,0.5161,0.516,0.5166,0.5167,0.5167,0.5168,0.5233,0.5234,0.5236,0,0,0,0,0,0,0,0,0,0,0,0,0,0.5219,0.5218,0.5168,0.5168,0.5168,0.5161,0.5161,0.516,0.5166,0.5167,0.5167,0.5168,0.5233,0.5234,0.5236,0,0,0,0,0,0,0,0,0,0,0,0,0,0.52,0.5217,0.5168,0.5172,0.5173,0.5161,0.5161,0.516,0.5166,0.5167,0.5167,0.5168,0.5232,0.5234,0.5236,0.5235,0,0,0.5242,0.5243,0,0,0,0,0,0,0,0,0.5201,0.5198,0.5171,0.5172,0.5172,0.5167,0.5203,0.5189,0.5166,0.5166,0.5168,0.5168,0.5219,0.5222,0.5215,0.5238,0.524,0.5242,0.5244,0.5244,0.5245,0,0,0,0,0,0,0,0.5203,0.5199,0.5163,0.5172,0.5172,0.5185,0.5183,0.52,0.5188,0.5166,0.5167,0.517,0.5219,0.5213,0.5217,0.5241,0.5242,0.5244,0.5245,0.5246,0.5301,0.5302,0,0,0,0,0,0,0.5205,0.52,0.5163,0.5163,0.5191,0.5184,0.5181,0.5166,0.5187,0.519,0.5169,0.517,0.5209,0.5214,0.5219,0.5226,0.5244,0.5246,0.5247,0.5301,0.5301,0.5302,0,0,0,0,0,0,0.5206,0.5201,0.5164,0.5184,0.5181,0.5182,0.5166,0.5166,0.5157,0.5188,0.5193,0.516,0.521,0.5216,0.5231,0.5229,0.5247,0.5249,0.5301,0.5301,0.5302,0.5236,0,0,0,0,0,0,0.5207,0.5201,0.5193,0.5184,0.518,0.5145,0.5165,0.5165,0.5158,0.5159,0.5182,0.5189,0.5211,0.5228,0.5233,0.5232,0.525,0.53,0.5301,0.5301,0.5238,0.5234,0.5231,0,0,0,0,0,0.5209,0.5186,0.5192,0.5188,0.5166,0.5144,0.5142,0.5146,0.5157,0.5142,0.5166,0.5188,0.5236,0.5229,0.5236,0.5235,0.53,0.5301,0.5301,0.524,0.5235,0.5231,0,0,0,0,0,0,0.5192,0.5185,0.519,0.5164,0.5154,0.5146,0.5131,0.514,0.5144,0.5147,0.5182,0.519,0.5206,0.5231,0.5223,0.5256,0.5276,0.5277,0.5227,0.5223,0.5219,0.5177,0.5252,0,0,0,0,0,0.5188,0.517,0.5167,0.514,0.5135,0.5134,0.5127,0.5127,0.5132,0.5133,0.5149,0.518,0.5213,0.5224,0.5249,0.5258,0.5292,0.5267,0.5264,0.526,0.5232,0.5319,0.532,0.5304,0.5304,0.5304,0,0,0.517,0.5166,0.5154,0.5137,0.5126,0.5103,0.5129,0.5107,0.5091,0.5141,0.5122,0.5163,0.5213,0.5226,0.5236,0.5245,0.5279,0.5261,0.5258,0.5231,0.532,0.5321,0.5322,0.5304,0.5304,0.5304,0,0,0.5117,0.5122,0.5088,0.5083,0.5072,0.5072,0.5065,0.5055,0.5055,0.5048,0.5093,0.5121,0.5155,0.5186,0.5213,0.5204,0.526,0.523,0.5174,0.5259,0.5261,0.5263,0.5287,0.5291,0.5227,0.5227,0.5227,0,0.5091,0.5061,0.5073,0.5044,0.5038,0.5056,0.5021,0.502,0.5016,0.5031,0.5034,0.5103,0.513,0.5176,0.5162,0.5193,0.524,0.5183,0.5253,0.5256,0.5259,0.5284,0.529,0.5224,0.5225,0.5225,0.5225,0,0.5016,0.5002,0.4979,0.4953,0.4946,0.4919,0.4928,0.4925,0.4937,0.4955,0.499,0.5027,0.5078,0.5094,0.5114,0.5158,0.5182,0.5241,0.5258,0.5257,0.5283,0.529,0.522,0.5221,0.5222,0.5223,0,0,0.4907,0.4925,0.4914,0.4906,0.4903,0.4882,0.4873,0.488,0.4862,0.4901,0.4895,0.4957,0.5,0.5029,0.5079,0.5121,0.516,0.5173,0.5179,0.5183,0.5317,0.5285,0.5291,0.5254,0.5255,0.5256,0.5318,0,0.4834,0.4795,0.4819,0.4771,0.4748,0.4788,0.4766,0.4785,0.4797,0.4792,0.4884,0.4896,0.4976,0.4983,0.5052,0.5124,0.5181,0.5135,0.5327,0.533,0.5295,0.5299,0.5041,0.5071,0.5325,0.5326,0.5327,0,0.4729,0.4731,0.4687,0.4695,0.4684,0.4655,0.4642,0.4633,0.4669,0.4686,0.4761,0.4816,0.4888,0.494,0.5113,0.5091,0.5193,0.5252,0.5259,0.5251,0.5313,0.5121,0.5076,0.4908,0.5339,0.5338,0.5337,0,0.4631,0.4626,0.46,0.4599,0.4605,0.459,0.4591,0.4601,0.4599,0.4622,0.4637,0.4744,0.4803,0.4947,0.5111,0.5115,0.5283,0.5321,0.5394,0.5392,0.5214,0.5194,0.5014,0.5452,0.5452,0.5452,0.5452,0,0.4534,0.4502,0.4553,0.4529,0.4479,0.4511,0.4446,0.4467,0.4484,0.4478,0.4593,0.4618,0.4817,0.4953,0.5084,0.5262,0.5304,0.5361,0.5411,0.5182,0.5159,0.5043,0.4989,0.5454,0.5454,0.5453,0.5453,0,0.4404,0.4445,0.4409,0.4428,0.4424,0.4384,0.4379,0.434,0.4391,0.4384,0.4405,0.4555,0.4712,0.4912,0.5114,0.5238,0.5228,0.5451,0.5135,0.5146,0.5009,0.4963,0.4765,0.4653,0.548,0.548,0.548,0,0.4329,0.4305,0.4322,0.4299,0.4298,0.4262,0.4227,0.4274,0.4255,0.4345,0.4347,0.4506,0.4594,0.4887,0.5094,0.5305,0.5195,0.5194,0.5151,0.4936,0.4923,0.4795,0.4706,0.4875,0.487,0.4866,0.4863,0,0.4194,0.4209,0.4199,0.4157,0.4123,0.4081,0.406,0.4047,0.4104,0.4132,0.419,0.4261,0.4554,0.463,0.4933,0.5056,0.4882,0.5115,0.4975,0.4484,0.4247,0.4184,0.4874,0.4825,0.4828,0.4831,0.4833,0.4835,0.4096,0.4052,0.4049,0.3986,0.3958,0.3891,0.3794,0.3815,0.3791,0.3773,0.3963,0.3976,0.4159,0.4537,0.4655,0.4639,0.4717,0.4504,0.448,0.4383,0.4201,0.4788,0.4765,0.4769,0.4771,0.4774,0.4776,0,0.3942,0.3915,0.3872,0.3783,0.3683,0.3722,0.3656,0.3539,0.3457,0.3519,0.3542,0.3605,0.3695,0.3883,0.4051,0.3992,0.3898,0.3874,0.3576,0.3541,0.4112,0.4011,0.3721,0.3721,0.3722,0.3722,0.3722,0.3722,0.3864,0.376,0.3725,0.3522,0.3458,0.3249,0.3176,0.3074,0.3056,0.296,0.2932,0.3037,0.3279,0.3413,0.34,0.338,0.3166,0.3031,0.3116,0.3445,0.3499,0.355,0.3438,0.3033,0.3032,0.2364,0.2359,0.2355]},{"header":{"parameterUnit":"m.s-1","parameterCategory":2,"la1":30.2991,"la2":30.254,"lo1":-89.0895,"lo2":-89.0444,"dy":0.0017,"dx":0.0017,"nx":28,"ny":28,"refTime":"2023-04-26T21:00:00:Z","depth":"0","parameterNumber":3,"parameterNumberName":"V-component_of_CURRENTS"},"data":[0,0,0,0,0,0,0,0,0,0,0,0,0,0,0,0,0,0,0,0,0,0,0,0,0,0,0,0,0,0,0,0,0,0,0,0,0,0,0,0,0,0,0,0,0,0,0,0,0,0,0,0,0,0,0,0,0,0,-0.0588,-0.0589,0,-0.0658,-0.0659,-0.066,-0.0708,-0.0709,-0.0709,-0.071,-0.0777,-0.0778,-0.0779,0,0,0,0,0,0,0,0,0,0,0,0,0,-0.0547,-0.0547,-0.0588,-0.0589,-0.059,-0.0658,-0.0659,-0.066,-0.0708,-0.0709,-0.071,-0.071,-0.0776,-0.0778,-0.0779,0,0,0,0,0,0,0,0,0,0,0,0,0,-0.0584,-0.0547,-0.0588,-0.0623,-0.0627,-0.0658,-0.0659,-0.066,-0.0708,-0.0709,-0.071,-0.071,-0.0776,-0.0778,-0.078,-0.0778,0,0,-0.0786,-0.0786,0,0,0,0,0,0,0,0,-0.0582,-0.0586,-0.0617,-0.0621,-0.0625,-0.0676,-0.0669,-0.07,-0.0708,-0.0676,-0.071,-0.0711,-0.0743,-0.0748,-0.0758,-0.0781,-0.0784,-0.0786,-0.0787,-0.0788,-0.0788,0,0,0,0,0,0,0,-0.0579,-0.0583,-0.0615,-0.0618,-0.0623,-0.0653,-0.0659,-0.0675,-0.0704,-0.0679,-0.0683,-0.0693,-0.0745,-0.0756,-0.076,-0.0785,-0.0786,-0.0788,-0.0789,-0.079,-0.0788,-0.0787,0,0,0,0,0,0,-0.0569,-0.058,-0.0612,-0.0617,-0.0606,-0.0653,-0.0659,-0.0658,-0.0704,-0.0712,-0.0692,-0.0695,-0.0752,-0.0757,-0.0762,-0.0735,-0.0788,-0.079,-0.0791,-0.0789,-0.0788,-0.0786,0,0,0,0,0,0,-0.0568,-0.0571,-0.061,-0.0602,-0.0609,-0.0653,-0.0652,-0.0659,-0.0669,-0.0714,-0.0722,-0.0693,-0.0753,-0.0759,-0.0762,-0.0739,-0.0791,-0.0792,-0.0791,-0.0789,-0.0787,-0.0699,0,0,0,0,0,0,-0.0566,-0.057,-0.0562,-0.0601,-0.0609,-0.0613,-0.0651,-0.066,-0.0674,-0.0678,-0.0718,-0.0725,-0.0754,-0.0759,-0.0764,-0.0743,-0.0794,-0.0792,-0.079,-0.0788,-0.0704,-0.0695,-0.0687,0,0,0,0,0,-0.0564,-0.0549,-0.0561,-0.0565,-0.0598,-0.0612,-0.0618,-0.0652,-0.0673,-0.0665,-0.0691,-0.0724,-0.0748,-0.0759,-0.0766,-0.0745,-0.0793,-0.0791,-0.0788,-0.0707,-0.0696,-0.0687,0,0,0,0,0,0,-0.0536,-0.0554,-0.0568,-0.0562,-0.0579,-0.062,-0.062,-0.0644,-0.066,-0.0664,-0.0708,-0.0716,-0.0711,-0.0737,-0.0749,-0.0737,-0.0776,-0.0774,-0.0713,-0.0703,-0.0694,-0.0665,-0.0796,0,0,0,0,0,-0.0523,-0.0511,-0.054,-0.0534,-0.054,-0.0578,-0.0588,-0.0609,-0.0632,-0.0641,-0.067,-0.0694,-0.0704,-0.071,-0.0728,-0.072,-0.0728,-0.071,-0.0701,-0.0694,-0.0674,-0.0666,-0.0654,-0.0777,-0.0777,-0.0777,0,0,-0.0513,-0.052,-0.0516,-0.0526,-0.0544,-0.0536,-0.0585,-0.0592,-0.0585,-0.0644,-0.0641,-0.0667,-0.0696,-0.0687,-0.0687,-0.0705,-0.0663,-0.0691,-0.0684,-0.0668,-0.0662,-0.065,-0.0639,-0.0775,-0.0776,-0.0776,0,0,-0.0479,-0.0489,-0.0465,-0.047,-0.0485,-0.0504,-0.0501,-0.0534,-0.0547,-0.0548,-0.0584,-0.0587,-0.0618,-0.0622,-0.0631,-0.0583,-0.062,-0.0598,-0.053,-0.0522,-0.0512,-0.0503,-0.0493,-0.0484,-0.0592,-0.0592,-0.0592,0,-0.0467,-0.0439,-0.0462,-0.044,-0.0437,-0.0482,-0.0457,-0.0473,-0.0503,-0.0499,-0.0534,-0.0549,-0.058,-0.0551,-0.0538,-0.0562,-0.0567,-0.0567,-0.051,-0.0501,-0.0493,-0.0486,-0.0477,-0.0588,-0.0588,-0.0589,-0.0589,0,-0.0415,-0.0392,-0.0378,-0.0358,-0.0357,-0.0343,-0.0367,-0.0365,-0.0392,-0.041,-0.0399,-0.0437,-0.0441,-0.0455,-0.0485,-0.044,-0.0465,-0.0502,-0.0533,-0.0475,-0.0472,-0.0464,-0.0581,-0.0583,-0.0584,-0.0585,0,0,-0.0378,-0.0346,-0.0338,-0.0309,-0.0311,-0.03,-0.0282,-0.0271,-0.024,-0.0283,-0.0244,-0.0275,-0.0301,-0.031,-0.0347,-0.0343,-0.03,-0.0394,-0.0396,-0.0379,-0.0278,-0.0292,-0.0286,-0.0332,-0.033,-0.0328,-0.0296,0,-0.0326,-0.0258,-0.0262,-0.0198,-0.0164,-0.0187,-0.0157,-0.0154,-0.0164,-0.0139,-0.0181,-0.0167,-0.0246,-0.0239,-0.0246,-0.0285,-0.0276,-0.0305,-0.0341,-0.0341,-0.0357,-0.0276,-0.024,-0.0207,-0.0289,-0.0287,-0.0286,0,-0.0259,-0.0223,-0.0149,-0.0096,-0.0083,-0.0054,-0.0001,0.0011,0.0026,0.0016,0.0013,-0.002,-0.0018,-0.0096,-0.0126,-0.0144,-0.0195,-0.0234,-0.0234,-0.0269,-0.034,-0.028,-0.0191,-0.0362,-0.0275,-0.0276,-0.0277,0,-0.0192,-0.0136,-0.0069,-0.0054,-0.0008,0.0026,0.0042,0.0068,0.0104,0.0116,0.0153,0.0125,0.0129,0.0061,-0.0036,-0.0074,-0.0068,-0.0134,-0.0191,-0.0193,-0.0178,-0.0182,-0.0251,-0.0139,-0.0139,-0.0139,-0.0139,0,-0.0115,-0.0058,-0.0029,0.0012,0.0096,0.0094,0.0184,0.019,0.0235,0.0309,0.0237,0.0297,0.0169,0.0147,0.0034,-0.0042,-0.0016,-0.0148,-0.0173,-0.0147,-0.0148,-0.0312,-0.0383,-0.0138,-0.0138,-0.0138,-0.0138,0,-0.0031,-0.0015,0.0066,0.0117,0.0137,0.0194,0.0266,0.0333,0.035,0.0448,0.046,0.0445,0.0411,0.0288,0.0194,0.0067,-0.0081,-0.0058,-0.0019,-0.004,-0.027,-0.0335,-0.039,-0.0412,-0.0104,-0.0104,-0.0104,0,0.0028,0.0077,0.0142,0.0191,0.022,0.0295,0.0357,0.0384,0.0457,0.0551,0.0613,0.0615,0.0642,0.0487,0.0283,0.0115,-0.0042,-0.0,-0.007,-0.0248,-0.034,-0.0409,-0.0428,-0.0013,-0.0013,-0.0012,-0.0012,0,0.0136,0.0151,0.0206,0.0299,0.0369,0.0457,0.0541,0.0619,0.0674,0.0772,0.0893,0.0929,0.0786,0.0645,0.0384,0.0236,-0.0082,0.0006,-0.0177,-0.0257,-0.0332,-0.0377,-0.0083,-0.0006,-0.0006,-0.0007,-0.0007,-0.0007,0.0214,0.0266,0.0329,0.0419,0.0502,0.0623,0.0701,0.0807,0.0949,0.1096,0.1114,0.1198,0.0943,0.0607,0.0381,-0.0047,-0.0033,-0.0193,-0.0249,-0.0301,-0.0341,-0.0034,0.0002,0.0002,0.0001,0.0001,0.0001,0,0.0317,0.0364,0.0449,0.056,0.0664,0.0689,0.0832,0.0913,0.1087,0.1243,0.1358,0.1315,0.0993,0.0605,0.0059,-0.0252,-0.0361,-0.0438,-0.0535,-0.0535,-0.0261,-0.0281,-0.0304,-0.0304,-0.0303,-0.0303,-0.0303,-0.0303,0.0383,0.0471,0.0503,0.0685,0.0763,0.0892,0.0974,0.1096,0.1216,0.1397,0.1483,0.1533,0.1267,0.0285,-0.0423,-0.0587,-0.0771,-0.0807,-0.0908,-0.0764,-0.0747,-0.0731,-0.0771,-0.0896,-0.0896,-0.1145,-0.1148,-0.115]}],[{"header":{"parameterUnit":"m.s-1","parameterCategory":2,"la1":30.2991,"la2":30.254,"lo1":-89.0895,"lo2":-89.0444,"dy":0.0017,"dx":0.0017,"nx":28,"ny":28,"refTime":"2023-04-26T21:00:00:Z","depth":"2","parameterNumber":2,"parameterNumberName":"U-component_of_CURRENTS"},"data":[0,0,0,0,0,0,0,0,0,0,0,0,0,0,0,0,0,0,0,0,0,0,0,0,0,0,0,0,0,0,0,0,0,0,0,0,0,0,0,0,0,0,0,0,0,0,0,0,0,0,0,0,0,0,0,0,0,0,0.3113,0.3112,0,0.2957,0.2955,0.2953,0.2908,0.291,0.2911,0.2913,0.287,0.2868,0.2865,0,0,0,0,0,0,0,0,0,0,0,0,0,0.3258,0.3255,0.3114,0.3112,0.3111,0.2958,0.2955,0.2952,0.2908,0.291,0.2912,0.2913,0.2871,0.2868,0.2865,0,0,0,0,0,0,0,0,0,0,0,0,0,0.3151,0.3255,0.3114,0.3076,0.3071,0.2958,0.2955,0.2951,0.2907,0.291,0.2912,0.2914,0.2872,0.2868,0.2864,0.2796,0,0,0.2853,0.2851,0,0,0,0,0,0,0,0,0.3157,0.3145,0.3083,0.3078,0.3073,0.2961,0.299,0.2907,0.2907,0.2962,0.2913,0.2915,0.2914,0.2907,0.2861,0.2794,0.2792,0.2852,0.285,0.2849,0.2847,0,0,0,0,0,0,0,0.3165,0.3151,0.3044,0.3081,0.3075,0.3027,0.3015,0.2973,0.2924,0.2957,0.2956,0.2949,0.2911,0.2864,0.286,0.2791,0.2853,0.2849,0.2847,0.2845,0.2844,0.2847,0,0,0,0,0,0,0.3202,0.3158,0.305,0.304,0.313,0.3024,0.3009,0.2989,0.2922,0.2915,0.2947,0.2947,0.2869,0.2864,0.2858,0.2915,0.2849,0.2845,0.2843,0.2842,0.2845,0.2847,0,0,0,0,0,0,0.3205,0.3193,0.3056,0.3103,0.3083,0.3021,0.2996,0.2985,0.2986,0.2914,0.2908,0.2968,0.2871,0.2864,0.2862,0.2909,0.2843,0.284,0.284,0.2843,0.2846,0.2939,0,0,0,0,0,0,0.3209,0.3194,0.3207,0.3105,0.3082,0.3026,0.2994,0.298,0.2978,0.2978,0.2929,0.2923,0.2872,0.2868,0.2858,0.2903,0.2837,0.2837,0.2841,0.2845,0.2933,0.2945,0.2956,0,0,0,0,0,0.3215,0.3207,0.3208,0.3196,0.3096,0.3028,0.3011,0.2969,0.2978,0.2979,0.2953,0.2928,0.289,0.2865,0.2854,0.2898,0.2835,0.284,0.2845,0.2928,0.2943,0.2956,0,0,0,0,0,0,0.3274,0.3199,0.3199,0.3171,0.3131,0.3024,0.3018,0.2999,0.297,0.2986,0.2931,0.2923,0.2947,0.291,0.2886,0.2916,0.2868,0.2871,0.2936,0.2949,0.296,0.2958,0.2834,0,0,0,0,0,0.3297,0.3272,0.3208,0.3191,0.3179,0.3114,0.3091,0.3064,0.3018,0.3008,0.2975,0.2956,0.2945,0.2941,0.2916,0.2913,0.2933,0.2945,0.2957,0.2966,0.296,0.3029,0.3046,0.2864,0.2864,0.2864,0,0,0.3311,0.3273,0.3258,0.3204,0.3166,0.3125,0.3104,0.3079,0.3054,0.3009,0.2989,0.2992,0.2956,0.2959,0.2969,0.2942,0.3041,0.2973,0.2981,0.2968,0.3037,0.3054,0.307,0.2867,0.2867,0.2866,0,0,0.3304,0.3304,0.3276,0.3246,0.321,0.3166,0.3179,0.3111,0.3105,0.3085,0.3065,0.3097,0.3054,0.3041,0.3029,0.3089,0.3101,0.3106,0.315,0.3219,0.3235,0.3248,0.3346,0.3367,0.3108,0.3108,0.3108,0,0.3334,0.3288,0.3263,0.3229,0.3211,0.3196,0.3168,0.3138,0.3084,0.3094,0.3103,0.3101,0.3087,0.3098,0.3128,0.3113,0.3168,0.3098,0.3234,0.3247,0.326,0.3356,0.3378,0.3113,0.3112,0.3112,0.3111,0,0.3284,0.3273,0.3259,0.3211,0.3191,0.3171,0.3136,0.3142,0.3157,0.3137,0.3184,0.3172,0.3185,0.32,0.3176,0.3261,0.3281,0.3245,0.3198,0.3284,0.338,0.3402,0.312,0.3118,0.3117,0.3116,0,0,0.3282,0.3234,0.3236,0.3226,0.319,0.316,0.3155,0.3143,0.3166,0.3172,0.3212,0.3226,0.3272,0.3264,0.3271,0.3324,0.3483,0.3334,0.3335,0.3429,0.3682,0.3601,0.3617,0.3484,0.3487,0.349,0.3733,0,0.3262,0.321,0.3192,0.3162,0.3136,0.3141,0.314,0.314,0.3163,0.3201,0.3244,0.3294,0.328,0.3338,0.3387,0.345,0.3537,0.3423,0.3585,0.359,0.3505,0.3636,0.32,0.337,0.3754,0.3757,0.376,0,0.3214,0.319,0.3162,0.3154,0.3151,0.3148,0.3178,0.3172,0.3224,0.3261,0.3324,0.3366,0.346,0.3448,0.3606,0.3544,0.3634,0.3679,0.3689,0.3584,0.3547,0.3337,0.3395,0.3795,0.3792,0.379,0.3787,0,0.3203,0.3171,0.3162,0.315,0.3136,0.3165,0.3181,0.3215,0.3241,0.3332,0.3396,0.3479,0.3573,0.3664,0.378,0.3724,0.3964,0.3891,0.3905,0.3902,0.3541,0.35,0.4031,0.4031,0.403,0.4029,0.4029,0,0.3168,0.316,0.3174,0.3161,0.3179,0.3186,0.3231,0.3256,0.3336,0.3383,0.3458,0.353,0.364,0.3775,0.3846,0.3961,0.4037,0.3944,0.3961,0.3567,0.3528,0.3876,0.3854,0.4039,0.4037,0.4035,0.4033,0,0.3139,0.3145,0.3132,0.3155,0.3167,0.319,0.3252,0.3283,0.338,0.3453,0.351,0.3634,0.3785,0.3898,0.4073,0.406,0.4167,0.4199,0.3752,0.3708,0.4044,0.4025,0.4217,0.4216,0.4215,0.4215,0.4214,0,0.3106,0.31,0.3126,0.3134,0.3156,0.3195,0.3219,0.3295,0.3329,0.3496,0.3532,0.3728,0.3744,0.3972,0.398,0.4087,0.4232,0.3832,0.3609,0.4068,0.4065,0.4047,0.4029,0.3202,0.3193,0.3186,0.318,0,0.3058,0.3095,0.31,0.3113,0.3144,0.3124,0.3178,0.3182,0.328,0.3346,0.3409,0.3444,0.3611,0.3472,0.3661,0.367,0.3755,0.3691,0.4302,0.3214,0.3127,0.3119,0.3132,0.3116,0.3123,0.3127,0.3131,0.3133,0.3051,0.3052,0.3084,0.3069,0.308,0.3007,0.2935,0.2981,0.2967,0.2957,0.3126,0.3064,0.3126,0.3099,0.311,0.3169,0.3405,0.3282,0.3297,0.3321,0.3151,0.3066,0.3017,0.3022,0.3027,0.3031,0.3035,0,0.3016,0.3026,0.3023,0.2975,0.2895,0.2932,0.2859,0.2734,0.2616,0.2665,0.2634,0.2391,0.2315,0.2489,0.2404,0.2475,0.238,0.2459,0.2263,0.2326,0.2382,0.2158,0.1764,0.1762,0.1759,0.1757,0,0,0.3008,0.2989,0.2949,0.2777,0.2725,0.252,0.2404,0.2275,0.2227,0.2026,0.1975,0.2076,0.2265,0.1925,0.1926,0.183,0.2059,0.1765,0.2759,0.2577,0.2629,0.2817,0.2539,0,0,0,0,0]},{"header":{"parameterUnit":"m.s-1","parameterCategory":2,"la1":30.2991,"la2":30.254,"lo1":-89.0895,"lo2":-89.0444,"dy":0.0017,"dx":0.0017,"nx":28,"ny":28,"refTime":"2023-04-26T21:00:00:Z","depth":"2","parameterNumber":3,"parameterNumberName":"V-component_of_CURRENTS"},"data":[0,0,0,0,0,0,0,0,0,0,0,0,0,0,0,0,0,0,0,0,0,0,0,0,0,0,0,0,0,0,0,0,0,0,0,0,0,0,0,0,0,0,0,0,0,0,0,0,0,0,0,0,0,0,0,0,0,0,-0.0195,-0.0196,0,-0.0245,-0.0246,-0.0246,-0.0304,-0.0306,-0.0307,-0.0308,-0.0367,-0.0368,-0.0368,0,0,0,0,0,0,0,0,0,0,0,0,0,-0.006,-0.0062,-0.0195,-0.0196,-0.0197,-0.0245,-0.0246,-0.0246,-0.0304,-0.0306,-0.0307,-0.0309,-0.0367,-0.0367,-0.0368,0,0,0,0,0,0,0,0,0,0,0,0,0,-0.0111,-0.0063,-0.0195,-0.0235,-0.024,-0.0245,-0.0246,-0.0246,-0.0304,-0.0306,-0.0308,-0.0309,-0.0367,-0.0367,-0.0368,-0.0333,0,0,-0.037,-0.037,0,0,0,0,0,0,0,0,-0.0108,-0.0115,-0.0228,-0.0233,-0.0238,-0.0275,-0.022,-0.0277,-0.0303,-0.0275,-0.0308,-0.031,-0.0338,-0.0341,-0.034,-0.0335,-0.0338,-0.037,-0.037,-0.037,-0.037,0,0,0,0,0,0,0,-0.0105,-0.0113,-0.021,-0.0229,-0.0235,-0.0221,-0.023,-0.023,-0.0292,-0.0277,-0.0283,-0.0295,-0.0341,-0.0339,-0.0342,-0.0339,-0.037,-0.037,-0.0371,-0.0371,-0.0428,-0.0429,0,0,0,0,0,0,-0.0111,-0.011,-0.0209,-0.0212,-0.0181,-0.0222,-0.0233,-0.0257,-0.0292,-0.03,-0.0293,-0.0297,-0.0337,-0.0341,-0.0344,-0.0393,-0.037,-0.0371,-0.0371,-0.0427,-0.0428,-0.043,0,0,0,0,0,0,-0.0108,-0.0119,-0.0207,-0.0165,-0.0176,-0.0224,-0.0249,-0.0257,-0.0303,-0.0305,-0.0313,-0.0338,-0.0339,-0.0344,-0.0375,-0.0393,-0.0371,-0.0372,-0.0425,-0.0427,-0.0429,-0.0434,0,0,0,0,0,0,-0.0104,-0.0118,-0.0147,-0.0166,-0.0179,-0.0233,-0.0248,-0.0257,-0.0307,-0.0314,-0.0344,-0.0349,-0.0341,-0.0374,-0.0376,-0.0393,-0.0372,-0.0424,-0.0426,-0.0428,-0.0432,-0.0436,-0.0439,0,0,0,0,0,-0.0099,-0.0124,-0.0148,-0.0161,-0.0215,-0.0234,-0.0239,-0.0274,-0.0308,-0.0324,-0.0348,-0.035,-0.039,-0.0375,-0.0376,-0.0395,-0.0423,-0.0426,-0.0428,-0.0431,-0.0435,-0.0439,0,0,0,0,0,0,-0.0087,-0.0133,-0.016,-0.0203,-0.023,-0.0246,-0.0269,-0.0298,-0.0329,-0.0348,-0.0356,-0.0361,-0.0395,-0.0399,-0.0382,-0.0421,-0.0411,-0.0414,-0.0412,-0.0416,-0.0419,-0.0402,-0.0372,0,0,0,0,0,-0.0096,-0.0126,-0.0166,-0.0201,-0.022,-0.0254,-0.0274,-0.03,-0.0325,-0.0344,-0.0371,-0.0394,-0.0397,-0.0413,-0.0419,-0.0436,-0.0433,-0.0454,-0.0458,-0.046,-0.045,-0.0458,-0.046,-0.0438,-0.0438,-0.0438,0,0,-0.01,-0.0131,-0.0149,-0.02,-0.0225,-0.0239,-0.0271,-0.031,-0.0325,-0.0342,-0.0387,-0.0407,-0.0405,-0.0422,-0.0439,-0.0434,-0.0468,-0.0463,-0.0465,-0.0453,-0.0461,-0.0463,-0.0465,-0.044,-0.044,-0.044,0,0,-0.0097,-0.0154,-0.017,-0.0193,-0.0241,-0.0256,-0.0279,-0.0326,-0.0356,-0.0391,-0.0404,-0.0434,-0.0464,-0.0453,-0.045,-0.0476,-0.0483,-0.0502,-0.0503,-0.0512,-0.0514,-0.0514,-0.0521,-0.0522,-0.0506,-0.0506,-0.0506,0,-0.0105,-0.0132,-0.0177,-0.0192,-0.0209,-0.0268,-0.0278,-0.0304,-0.0358,-0.0372,-0.0414,-0.045,-0.0465,-0.0449,-0.047,-0.0479,-0.0494,-0.0484,-0.0514,-0.0515,-0.0516,-0.0522,-0.0523,-0.0506,-0.0506,-0.0506,-0.0506,0,-0.0099,-0.0131,-0.0143,-0.018,-0.02,-0.0224,-0.0261,-0.03,-0.0357,-0.0379,-0.0418,-0.0442,-0.0462,-0.048,-0.0485,-0.0499,-0.0511,-0.0513,-0.0497,-0.0518,-0.0524,-0.0525,-0.0507,-0.0507,-0.0507,-0.0507,0,0,-0.0094,-0.0131,-0.014,-0.0149,-0.0199,-0.021,-0.0236,-0.0263,-0.0275,-0.0351,-0.036,-0.0399,-0.0443,-0.0442,-0.0464,-0.0481,-0.0513,-0.0515,-0.0515,-0.0508,-0.0545,-0.0483,-0.0478,-0.0533,-0.0533,-0.0533,-0.0549,0,-0.0082,-0.0091,-0.0116,-0.0127,-0.0136,-0.0181,-0.0192,-0.0225,-0.0265,-0.0292,-0.0334,-0.0355,-0.0417,-0.0436,-0.0469,-0.049,-0.0517,-0.0509,-0.0537,-0.0537,-0.0469,-0.0477,-0.0486,-0.0494,-0.055,-0.055,-0.055,0,-0.007,-0.0077,-0.0079,-0.0095,-0.0105,-0.0119,-0.0141,-0.0157,-0.0192,-0.0229,-0.027,-0.0306,-0.0341,-0.0397,-0.0459,-0.046,-0.0514,-0.0537,-0.0538,-0.0474,-0.0477,-0.0483,-0.0494,-0.0552,-0.0552,-0.0552,-0.0552,0,-0.0031,-0.0053,-0.005,-0.0059,-0.0086,-0.0097,-0.0115,-0.0144,-0.0128,-0.0185,-0.0178,-0.0252,-0.026,-0.0351,-0.042,-0.0456,-0.0472,-0.0518,-0.0507,-0.0504,-0.0508,-0.0503,-0.0564,-0.0564,-0.0564,-0.0564,-0.0564,0,-0.0003,-0.0007,-0.0036,-0.0037,-0.0032,-0.0067,-0.0054,-0.0089,-0.0083,-0.0023,-0.0147,-0.0097,-0.0253,-0.0277,-0.0387,-0.0431,-0.045,-0.0498,-0.0499,-0.0511,-0.0507,-0.0553,-0.0552,-0.0565,-0.0565,-0.0564,-0.0564,0,0.0037,0.0015,0.0017,-0.0009,-0.0015,-0.0015,0.0005,0.0039,0.0006,0.0089,0.0082,0.0032,-0.0,-0.0127,-0.023,-0.034,-0.0413,-0.0425,-0.0423,-0.0422,-0.046,-0.0459,-0.0441,-0.0439,-0.0437,-0.0436,-0.0434,0,0.006,0.0063,0.0046,0.0061,0.0045,0.0053,0.0084,0.0074,0.0149,0.0209,0.0283,0.026,0.0299,0.0148,-0.0067,-0.0238,-0.0286,-0.0356,-0.0419,-0.0442,-0.0446,-0.0448,-0.0449,-0.0445,-0.0444,-0.0443,-0.0442,0,0.0109,0.0091,0.0101,0.0131,0.0155,0.0224,0.028,0.0371,0.0419,0.0488,0.0641,0.0675,0.0509,0.0333,0.0061,-0.007,-0.034,-0.0338,-0.0361,-0.0454,-0.0441,-0.0445,-0.0448,-0.0434,-0.0435,-0.0436,-0.0436,-0.0437,0.0145,0.0165,0.018,0.0218,0.0277,0.0429,0.0501,0.0616,0.077,0.0886,0.0923,0.0925,0.0666,0.0325,0.0097,-0.0197,-0.0207,-0.0344,-0.035,-0.0356,-0.0332,-0.0315,-0.0281,-0.0281,-0.0281,-0.0281,-0.0281,0,0.0206,0.0233,0.0275,0.0352,0.0471,0.0483,0.0658,0.0742,0.0941,0.103,0.1114,0.0914,0.0702,0.0412,-0.0017,-0.0248,-0.0319,-0.0313,-0.038,-0.0386,-0.0392,-0.0374,-0.0332,-0.0332,-0.0333,-0.0333,0,0,0.0238,0.0296,0.0326,0.0522,0.0601,0.0745,0.0861,0.0973,0.1039,0.1131,0.1109,0.1063,0.0753,0.0444,0.0117,-0.0113,-0.0198,-0.0156,-0.0097,-0.0147,-0.015,-0.0397,-0.0371,0,0,0,0,0]}],[{"header":{"parameterUnit":"m.s-1","parameterCategory":2,"la1":30.2991,"la2":30.254,"lo1":-89.0895,"lo2":-89.0444,"dy":0.0017,"dx":0.0017,"nx":28,"ny":28,"refTime":"2023-04-26T21:00:00:Z","depth":"4","parameterNumber":2,"parameterNumberName":"U-component_of_CURRENTS"},"data":[0,0,0,0,0,0,0,0,0,0,0,0,0,0,0,0,0,0,0,0,0,0,0,0,0,0,0,0,0,0,0,0,0,0,0,0,0,0,0,0,0,0,0,0,0,0,0,0,0,0,0,0,0,0,0,0,0,0,0.0128,0.0127,0,0.0167,0.0168,0.0169,0.0299,0.0301,0.0303,0.0305,0.0576,0.0581,0.0586,0,0,0,0,0,0,0,0,0,0,0,0,0,0.0118,0.0118,0.0128,0.0127,0.0127,0.0166,0.0168,0.0169,0.0298,0.0301,0.0304,0.0306,0.0574,0.0581,0.0587,0,0,0,0,0,0,0,0,0,0,0,0,0,0.0143,0.0118,0.0128,0.0191,0.0196,0.0166,0.0168,0.0169,0.0298,0.0301,0.0304,0.0308,0.0572,0.058,0.0588,0.057,0,0,0.0611,0.0615,0,0,0,0,0,0,0,0,0.0142,0.0145,0.0182,0.0186,0.0192,0.0224,0.0263,0.0312,0.0297,0.0268,0.0305,0.0309,0.0472,0.0488,0.0496,0.0582,0.0594,0.0612,0.0617,0.062,0.0622,0,0,0,0,0,0,0,0.014,0.0143,0.0151,0.0181,0.0187,0.02,0.0209,0.0272,0.0362,0.027,0.0278,0.0269,0.0479,0.0488,0.0504,0.0598,0.0612,0.0619,0.0623,0.0626,0.1028,0.1034,0,0,0,0,0,0,0.0118,0.0141,0.015,0.0152,0.0166,0.0197,0.0207,0.0217,0.0356,0.0376,0.0266,0.0274,0.0474,0.0495,0.0515,0.0856,0.062,0.0627,0.0632,0.1022,0.1029,0.1036,0,0,0,0,0,0,0.0118,0.0119,0.0148,0.014,0.0144,0.0193,0.0204,0.0216,0.0333,0.0348,0.0376,0.0381,0.0477,0.0504,0.0731,0.0855,0.0631,0.0638,0.1015,0.1024,0.1033,0.1313,0,0,0,0,0,0,0.0118,0.0119,0.0134,0.0139,0.0143,0.0224,0.02,0.0214,0.0311,0.0326,0.0454,0.0476,0.0482,0.0721,0.0739,0.0861,0.0644,0.1007,0.1019,0.103,0.1296,0.133,0.1359,0,0,0,0,0,0.0118,0.014,0.0135,0.0136,0.0158,0.0227,0.0236,0.0283,0.0315,0.0398,0.0525,0.0478,0.0803,0.0734,0.0754,0.0881,0.1002,0.1016,0.1029,0.1281,0.1323,0.1359,0,0,0,0,0,0,0.0141,0.0154,0.015,0.0174,0.0232,0.0249,0.03,0.0343,0.0496,0.0546,0.0581,0.0616,0.0852,0.083,0.0753,0.1026,0.0882,0.0901,0.1067,0.1107,0.1138,0.1056,0.065,0,0,0,0,0,0.0142,0.0173,0.0195,0.0222,0.0255,0.0297,0.0334,0.0392,0.0498,0.0569,0.069,0.0796,0.0897,0.0983,0.1071,0.1233,0.1084,0.1317,0.1349,0.1376,0.1323,0.1224,0.1239,0.108,0.108,0.108,0,0,0.0143,0.016,0.0171,0.023,0.0268,0.036,0.0337,0.0447,0.0587,0.0575,0.0865,0.0936,0.097,0.1172,0.1269,0.1189,0.1357,0.1393,0.1416,0.1346,0.1239,0.1253,0.1266,0.109,0.1088,0.1087,0,0,0.0184,0.0201,0.0253,0.0316,0.0405,0.0455,0.0519,0.0647,0.0779,0.1026,0.105,0.1195,0.1408,0.1431,0.146,0.1707,0.1536,0.1766,0.1862,0.1773,0.1782,0.1788,0.1654,0.1646,0.1773,0.1774,0.1775,0,0.019,0.0251,0.0285,0.037,0.0448,0.0523,0.0649,0.0772,0.0994,0.1106,0.1178,0.1428,0.1501,0.1617,0.1734,0.1774,0.1674,0.1722,0.1806,0.1809,0.181,0.167,0.1657,0.1789,0.1787,0.1786,0.1785,0,0.0274,0.0341,0.0391,0.0527,0.0641,0.0756,0.0921,0.1117,0.1299,0.1392,0.1642,0.1731,0.1831,0.1915,0.1925,0.1989,0.1902,0.1862,0.1691,0.1841,0.1687,0.1669,0.1811,0.1805,0.1801,0.1797,0,0,0.0253,0.0412,0.0438,0.054,0.0745,0.0857,0.1122,0.1342,0.1469,0.1725,0.1859,0.2087,0.2076,0.2099,0.2109,0.2071,0.2058,0.2002,0.199,0.1836,0.1826,0.1789,0.1762,0.2041,0.2039,0.2038,0.1725,0,0.0319,0.0461,0.0582,0.0813,0.0909,0.1109,0.1327,0.155,0.1728,0.1886,0.1973,0.2098,0.2157,0.2195,0.2183,0.2085,0.2017,0.2142,0.1727,0.1713,0.1634,0.1742,0.2032,0.1709,0.1705,0.1701,0.1699,0,0.0386,0.0467,0.066,0.0936,0.1014,0.1206,0.1531,0.1714,0.1902,0.2027,0.2116,0.2152,0.2189,0.2179,0.2046,0.2131,0.1995,0.1897,0.1881,0.1709,0.164,0.152,0.1661,0.1664,0.1667,0.167,0.1672,0,0.0346,0.0568,0.073,0.0815,0.1111,0.1324,0.1514,0.1758,0.1893,0.2032,0.2075,0.2137,0.2123,0.2018,0.1891,0.1971,0.1636,0.1698,0.1504,0.1496,0.1488,0.1483,0.1514,0.1515,0.1515,0.1516,0.1517,0,0.0382,0.0511,0.0723,0.0821,0.1057,0.1293,0.1536,0.1727,0.1879,0.1937,0.2077,0.2045,0.2084,0.1938,0.1824,0.1588,0.1567,0.1494,0.1419,0.1624,0.1639,0.1474,0.1473,0.1504,0.1507,0.1509,0.1511,0,0.0325,0.0447,0.0625,0.0929,0.1044,0.1205,0.1531,0.1635,0.1798,0.1839,0.1878,0.1957,0.1826,0.1757,0.1526,0.1473,0.1251,0.1131,0.129,0.123,0.1195,0.1214,0.0966,0.0962,0.0959,0.0956,0.0954,0,0.0312,0.0382,0.0648,0.0739,0.0906,0.1138,0.1285,0.1559,0.1587,0.1727,0.1665,0.1663,0.168,0.1305,0.1265,0.1037,0.1015,0.0898,0.1164,0.119,0.114,0.1165,0.1187,0.0949,0.0948,0.0947,0.0946,0,0.0276,0.0363,0.049,0.0605,0.0798,0.0972,0.1159,0.1203,0.1422,0.1537,0.1491,0.1495,0.1322,0.1236,0.105,0.0881,0.1021,0.0867,0.0877,0.1126,0.1166,0.1126,0.1152,0.0935,0.0937,0.0938,0.0938,0,0.0241,0.026,0.0374,0.0519,0.0667,0.0796,0.095,0.1033,0.1143,0.1316,0.1237,0.1242,0.1271,0.113,0.0909,0.0823,0.0886,0.0901,0.0912,0.0924,0.107,0.1124,0.079,0,0,0,0,0,0.0208,0.0216,0.0284,0.0446,0.0562,0.0694,0.0842,0.0961,0.1132,0.1084,0.1209,0.1072,0.1012,0.0948,0.0854,0.0861,0.0841,0.0749,0.0855,0.0873,0.0886,0.1071,0,0,0,0,0,0,0.017,0.0206,0.0228,0.0331,0.0449,0.0597,0.0739,0.0877,0.0833,0.0989,0.0907,0.1034,0.0896,0.1053,0.0844,0.0828,0.0882,0.0742,0.074,0.0866,0.0878,0.0888,0.1082,0,0,0,0,0]},{"header":{"parameterUnit":"m.s-1","parameterCategory":2,"la1":30.2991,"la2":30.254,"lo1":-89.0895,"lo2":-89.0444,"dy":0.0017,"dx":0.0017,"nx":28,"ny":28,"refTime":"2023-04-26T21:00:00:Z","depth":"4","parameterNumber":3,"parameterNumberName":"V-component_of_CURRENTS"},"data":[0,0,0,0,0,0,0,0,0,0,0,0,0,0,0,0,0,0,0,0,0,0,0,0,0,0,0,0,0,0,0,0,0,0,0,0,0,0,0,0,0,0,0,0,0,0,0,0,0,0,0,0,0,0,0,0,0,0,0.0522,0.0521,0,0.052,0.052,0.0521,0.067,0.0673,0.0676,0.0679,0.0741,0.074,0.0738,0,0,0,0,0,0,0,0,0,0,0,0,0,0.0586,0.0585,0.0522,0.0521,0.052,0.052,0.052,0.0521,0.067,0.0673,0.0677,0.0681,0.0741,0.074,0.0738,0,0,0,0,0,0,0,0,0,0,0,0,0,0.0577,0.0585,0.0522,0.0588,0.0593,0.0519,0.052,0.0521,0.0669,0.0674,0.0678,0.0683,0.0742,0.074,0.0738,0.0633,0,0,0.0732,0.0731,0,0,0,0,0,0,0,0,0.0577,0.0576,0.0579,0.0583,0.0588,0.0592,0.0565,0.0559,0.0668,0.0649,0.068,0.0685,0.0687,0.069,0.0692,0.0635,0.0638,0.0732,0.0731,0.073,0.073,0,0,0,0,0,0,0,0.0578,0.0576,0.053,0.0577,0.0583,0.0593,0.0598,0.0565,0.065,0.0651,0.066,0.0644,0.0693,0.0693,0.0694,0.0639,0.0732,0.073,0.0729,0.0729,0.0609,0.0607,0,0,0,0,0,0,0.0558,0.0576,0.053,0.0529,0.0584,0.0587,0.0594,0.0594,0.065,0.066,0.064,0.0651,0.0694,0.0696,0.0697,0.0781,0.073,0.0728,0.0727,0.0611,0.0608,0.0606,0,0,0,0,0,0,0.0559,0.0554,0.053,0.0545,0.0542,0.0581,0.0579,0.0591,0.0682,0.0638,0.0653,0.0729,0.0698,0.07,0.0731,0.0777,0.0728,0.0726,0.0613,0.061,0.0607,0.0816,0,0,0,0,0,0,0.0562,0.0555,0.0565,0.0544,0.054,0.0546,0.0574,0.0587,0.0654,0.0672,0.0716,0.0722,0.0702,0.0734,0.0729,0.0773,0.0724,0.0616,0.0612,0.0608,0.0812,0.082,0.0828,0,0,0,0,0,0.0564,0.0578,0.0566,0.056,0.0547,0.0546,0.0548,0.0595,0.0655,0.0699,0.0725,0.0726,0.0704,0.0732,0.0726,0.0772,0.0618,0.0613,0.0609,0.0808,0.0819,0.0828,0,0,0,0,0,0,0.0614,0.0591,0.058,0.0586,0.0581,0.057,0.0596,0.0637,0.0691,0.0728,0.0723,0.0728,0.0762,0.0708,0.0739,0.0706,0.065,0.0644,0.0803,0.0812,0.082,0.0826,0.0723,0,0,0,0,0,0.0614,0.0624,0.0594,0.0598,0.0598,0.0609,0.0623,0.0662,0.0685,0.0722,0.0761,0.0751,0.0712,0.073,0.069,0.0692,0.0569,0.0696,0.0704,0.0713,0.0702,0.0486,0.0476,0.0591,0.0591,0.0591,0,0,0.062,0.0614,0.0614,0.0608,0.0606,0.0615,0.0637,0.0682,0.0746,0.0708,0.0836,0.0796,0.0713,0.0721,0.0727,0.0708,0.0628,0.0707,0.0717,0.07,0.0481,0.047,0.046,0.0588,0.0589,0.0589,0,0,0.0643,0.0643,0.0659,0.0656,0.0664,0.0667,0.0702,0.0745,0.0835,0.0916,0.0873,0.0846,0.0881,0.0786,0.0745,0.075,0.0672,0.0764,0.0837,0.0631,0.0621,0.061,0.0516,0.0494,0.0777,0.0778,0.0778,0,0.0655,0.0662,0.0664,0.0673,0.0697,0.0706,0.0751,0.0798,0.0871,0.0932,0.0997,0.0927,0.0889,0.0785,0.0816,0.0775,0.0689,0.0837,0.0647,0.0633,0.0618,0.0523,0.0497,0.0787,0.0786,0.0785,0.0784,0,0.0673,0.0686,0.0697,0.0712,0.0755,0.0784,0.0837,0.0938,0.106,0.1084,0.1114,0.1029,0.0978,0.0954,0.0926,0.0788,0.0777,0.0686,0.0645,0.062,0.0521,0.049,0.0801,0.0797,0.0795,0.0792,0,0,0.0687,0.0706,0.0715,0.076,0.0794,0.0849,0.0959,0.1044,0.112,0.1185,0.1229,0.1166,0.112,0.1054,0.0955,0.0801,0.0674,0.0753,0.0737,0.0702,0.0314,0.0403,0.0377,0.0574,0.0567,0.0563,0.0317,0,0.0703,0.0717,0.0775,0.0863,0.0872,0.0976,0.1086,0.1178,0.1251,0.1285,0.1191,0.1171,0.1151,0.113,0.0971,0.0706,0.0591,0.0754,0.0302,0.029,0.0404,0.0341,0.0543,0.0293,0.0286,0.028,0.0276,0,0.0718,0.0718,0.0791,0.0949,0.099,0.1132,0.1321,0.1399,0.1405,0.1452,0.1371,0.1279,0.1078,0.1054,0.0639,0.0762,0.0587,0.0396,0.0379,0.0356,0.0318,0.029,0.0219,0.0223,0.0227,0.0231,0.0235,0,0.0724,0.0786,0.0869,0.0897,0.1037,0.1259,0.1409,0.1499,0.1544,0.1519,0.1471,0.1265,0.1117,0.0844,0.0549,0.0589,0.0071,0.0042,-0.004,-0.0032,-0.0124,-0.0112,-0.0247,-0.0247,-0.0246,-0.0245,-0.0245,0,0.0728,0.0792,0.0923,0.0988,0.1208,0.1335,0.1568,0.1682,0.1674,0.1588,0.1544,0.1338,0.1053,0.0747,0.0513,0.0155,0.004,-0.004,-0.0119,-0.002,0.0006,-0.0141,-0.0125,-0.0254,-0.0252,-0.0251,-0.0249,0,0.0706,0.0752,0.086,0.1092,0.1235,0.1408,0.1713,0.1751,0.1789,0.1639,0.1617,0.1347,0.0979,0.0712,0.0213,0.0096,-0.0251,-0.0335,-0.0139,-0.0201,-0.0187,-0.0159,-0.0456,-0.0455,-0.0455,-0.0455,-0.0454,0,0.069,0.073,0.0961,0.1091,0.1274,0.1533,0.1682,0.1825,0.1738,0.1557,0.137,0.1115,0.0908,0.0302,0.005,-0.0302,-0.0338,-0.0428,-0.0339,-0.0176,-0.0224,-0.0196,-0.0169,-0.0454,-0.0454,-0.0454,-0.0454,0,0.0665,0.0758,0.0836,0.1053,0.1302,0.144,0.1634,0.1575,0.1538,0.1536,0.1152,0.0952,0.0549,0.0212,0.0018,-0.0277,-0.033,-0.0424,-0.0426,-0.0344,-0.0177,-0.0219,-0.0193,-0.0452,-0.0452,-0.0453,-0.0453,0,0.0679,0.068,0.0802,0.102,0.1203,0.128,0.1438,0.1353,0.1313,0.1111,0.0936,0.0655,0.0493,0.021,-0.0071,-0.0217,-0.0252,-0.0265,-0.0276,-0.028,-0.0113,0.0132,-0.014,0,0,0,0,0,0.0664,0.0661,0.0793,0.0961,0.1089,0.1225,0.1298,0.1347,0.1274,0.1004,0.1004,0.0653,0.0347,0.0151,0.0008,-0.0065,-0.0274,-0.0231,-0.0293,-0.0445,-0.0447,-0.0268,0,0,0,0,0,0,0.0638,0.0707,0.0711,0.0813,0.0928,0.1033,0.1085,0.1081,0.0908,0.0854,0.0653,0.0653,0.0308,0.0423,0.0005,-0.0042,-0.0088,-0.0361,-0.0363,-0.0444,-0.0446,-0.0447,-0.0264,0,0,0,0,0]}]]